TimeEDT,TemperatureF,Dew PointF,Humidity,Sea Level PressureIn,VisibilityMPH,Wind Direction,Wind SpeedMPH,Gust SpeedMPH,PrecipitationIn,Events,Conditions,WindDirDegrees,DateUTC
12:15 AM,50.0,32.0,50,29.65,10.0,West,12.7,18.4,N/A,,Clear,270,2012-10-30 04:15:00
12:35 AM,50.0,32.0,50,29.65,10.0,West,16.1,21.9,N/A,,Clear,270,2012-10-30 04:35:00
12:55 AM,50.0,32.0,50,29.65,7.0,West,11.5,19.6,N/A,,Clear,270,2012-10-30 04:55:00
1:15 AM,50.0,32.0,50,29.64,7.0,West,11.5,-,N/A,,Clear,260,2012-10-30 05:15:00
1:35 AM,50.0,32.0,50,29.63,10.0,West,16.1,19.6,N/A,,Clear,270,2012-10-30 05:35:00
2:35 AM,50.0,32.0,50,29.62,7.0,West,16.1,23.0,N/A,,Clear,270,2012-10-30 06:35:00
2:55 AM,50.0,32.0,50,29.62,10.0,West,13.8,21.9,N/A,,Clear,260,2012-10-30 06:55:00
3:15 AM,48.2,32.0,54,29.61,7.0,WSW,12.7,24.2,N/A,,Clear,250,2012-10-30 07:15:00
3:35 AM,48.2,32.0,54,29.61,10.0,WSW,11.5,19.6,N/A,,Clear,250,2012-10-30 07:35:00
3:55 AM,46.4,32.0,57,29.61,7.0,WSW,15.0,21.9,N/A,,Clear,250,2012-10-30 07:55:00
4:15 AM,46.4,32.0,57,29.60,7.0,WSW,10.4,20.7,N/A,,Clear,240,2012-10-30 08:15:00
4:55 AM,46.4,32.0,57,29.60,10.0,WSW,12.7,18.4,N/A,,Clear,250,2012-10-30 08:55:00
5:15 AM,46.4,30.2,53,29.60,7.0,WSW,15.0,19.6,N/A,,Clear,250,2012-10-30 09:15:00
5:35 AM,46.4,30.2,53,29.61,7.0,WSW,15.0,20.7,N/A,,Clear,250,2012-10-30 09:35:00
5:55 AM,46.4,30.2,53,29.61,7.0,West,11.5,-,N/A,,Clear,260,2012-10-30 09:55:00
6:15 AM,46.4,30.2,53,29.61,7.0,WSW,15.0,20.7,N/A,,Clear,250,2012-10-30 10:15:00
6:35 AM,46.4,28.4,50,29.62,10.0,WSW,13.8,21.9,N/A,,Clear,250,2012-10-30 10:35:00
6:55 AM,46.4,28.4,50,29.62,7.0,West,17.3,23.0,N/A,,Clear,260,2012-10-30 10:55:00
7:15 AM,46.4,28.4,50,29.62,7.0,WSW,17.3,25.3,N/A,,Clear,250,2012-10-30 11:15:00
7:35 AM,46.4,28.4,50,29.62,7.0,West,15.0,21.9,N/A,,Clear,260,2012-10-30 11:35:00
7:55 AM,46.4,28.4,50,29.63,7.0,WSW,11.5,25.3,N/A,,Clear,250,2012-10-30 11:55:00
8:35 AM,48.2,30.2,50,29.64,7.0,West,15.0,26.5,N/A,,Clear,260,2012-10-30 12:35:00
8:55 AM,48.2,30.2,50,29.65,7.0,West,19.6,26.5,N/A,,Clear,260,2012-10-30 12:55:00
9:15 AM,50.0,30.2,47,29.65,7.0,West,21.9,26.5,N/A,,Clear,260,2012-10-30 13:15:00
9:35 AM,50.0,30.2,47,29.65,7.0,West,17.3,31.1,N/A,,Clear,260,2012-10-30 13:35:00
9:55 AM,51.8,30.2,44,29.65,7.0,West,24.2,31.1,N/A,,Clear,270,2012-10-30 13:55:00
10:15 AM,51.8,32.0,47,29.65,7.0,West,17.3,27.6,N/A,,Clear,270,2012-10-30 14:15:00
10:35 AM,53.6,32.0,44,29.65,7.0,West,19.6,25.3,N/A,,Clear,260,2012-10-30 14:35:00
10:55 AM,53.6,32.0,44,29.65,7.0,West,16.1,26.5,N/A,,Clear,270,2012-10-30 14:55:00
11:15 AM,53.6,32.0,44,29.65,7.0,West,20.7,25.3,N/A,,Clear,260,2012-10-30 15:15:00
11:35 AM,55.4,32.0,41,29.65,7.0,West,21.9,-,N/A,,Clear,260,2012-10-30 15:35:00
11:55 AM,57.2,32.0,38,29.64,7.0,West,21.9,25.3,N/A,,Clear,260,2012-10-30 15:55:00
12:15 PM,57.2,32.0,38,29.64,7.0,West,19.6,25.3,N/A,,Clear,270,2012-10-30 16:15:00
12:35 PM,59.0,30.2,34,29.64,7.0,WSW,21.9,26.5,N/A,,Clear,250,2012-10-30 16:35:00
12:55 PM,59.0,30.2,34,29.63,7.0,West,21.9,28.8,N/A,,Clear,270,2012-10-30 16:55:00
1:15 PM,60.8,30.2,31,29.62,7.0,West,19.6,26.5,N/A,,Clear,260,2012-10-30 17:15:00
1:35 PM,60.8,28.4,29,29.61,7.0,West,18.4,24.2,N/A,,Clear,280,2012-10-30 17:35:00
1:55 PM,60.8,28.4,29,29.61,5.0,West,23.0,28.8,N/A,,Haze,280,2012-10-30 17:55:00
2:15 PM,60.8,24.8,25,29.60,7.0,WNW,16.1,29.9,N/A,,Clear,290,2012-10-30 18:15:00
2:35 PM,62.6,24.8,24,29.60,7.0,West,18.4,29.9,N/A,,Clear,270,2012-10-30 18:35:00
2:55 PM,62.6,24.8,24,29.61,7.0,West,20.7,27.6,N/A,,Clear,270,2012-10-30 18:55:00
3:15 PM,62.6,24.8,24,29.60,7.0,West,17.3,28.8,N/A,,Clear,280,2012-10-30 19:15:00
3:35 PM,60.8,24.8,25,29.60,5.0,West,21.9,28.8,N/A,,Haze,260,2012-10-30 19:35:00
3:55 PM,60.8,23.0,23,29.61,7.0,West,21.9,29.9,N/A,,Clear,270,2012-10-30 19:55:00
4:15 PM,62.6,23.0,22,29.61,7.0,West,18.4,32.2,N/A,,Clear,270,2012-10-30 20:15:00
4:35 PM,60.8,23.0,23,29.62,7.0,West,19.6,29.9,N/A,,Clear,260,2012-10-30 20:35:00
4:55 PM,60.8,21.2,22,29.62,7.0,West,18.4,29.9,N/A,,Clear,270,2012-10-30 20:55:00
5:15 PM,60.8,21.2,22,29.63,7.0,West,12.7,25.3,N/A,,Clear,270,2012-10-30 21:15:00
5:35 PM,59.0,23.0,25,29.64,10.0,West,16.1,24.2,N/A,,Clear,270,2012-10-30 21:35:00
5:55 PM,59.0,24.8,27,29.65,7.0,West,12.7,-,N/A,,Clear,260,2012-10-30 21:55:00
6:15 PM,59.0,23.0,25,29.65,7.0,West,15.0,-,N/A,,Clear,260,2012-10-30 22:15:00
6:35 PM,57.2,23.0,27,29.66,7.0,WSW,10.4,-,N/A,,Clear,250,2012-10-30 22:35:00
6:55 PM,57.2,24.8,29,29.67,7.0,WSW,9.2,-,N/A,,Clear,250,2012-10-30 22:55:00
7:15 PM,57.2,26.6,31,29.68,7.0,WSW,8.1,-,N/A,,Clear,250,2012-10-30 23:15:00
7:35 PM,55.4,26.6,33,29.70,7.0,WSW,8.1,-,N/A,,Clear,240,2012-10-30 23:35:00
7:55 PM,55.4,26.6,33,29.70,7.0,WSW,8.1,-,N/A,,Clear,250,2012-10-30 23:55:00
8:15 PM,55.4,24.8,31,29.71,7.0,WSW,9.2,-,N/A,,Clear,250,2012-10-31 00:15:00
8:55 PM,55.4,23.0,29,29.73,7.0,West,13.8,17.3,N/A,,Clear,270,2012-10-31 00:55:00
9:15 PM,55.4,23.0,29,29.75,10.0,West,12.7,21.9,N/A,,Clear,260,2012-10-31 01:15:00
9:35 PM,55.4,23.0,29,29.76,7.0,West,15.0,21.9,N/A,,Clear,260,2012-10-31 01:35:00
9:55 PM,53.6,23.0,30,29.77,7.0,West,13.8,20.7,N/A,,Clear,260,2012-10-31 01:55:00
10:15 PM,53.6,23.0,30,29.77,10.0,West,15.0,20.7,N/A,,Clear,260,2012-10-31 02:15:00
10:35 PM,53.6,23.0,30,29.78,7.0,West,15.0,-,N/A,,Clear,260,2012-10-31 02:35:00
10:55 PM,53.6,23.0,30,29.78,7.0,West,15.0,19.6,N/A,,Clear,260,2012-10-31 02:55:00
11:35 PM,53.6,23.0,30,29.78,7.0,West,18.4,25.3,N/A,,Clear,270,2012-10-31 03:35:00
11:55 PM,53.6,23.0,30,29.78,5.0,West,12.7,20.7,N/A,,Haze,270,2012-10-31 03:55:00